#timestamp,LO_Frequency,Hit,StdDev 
1665554415.1,286047002.2,P
1665554416.0,286047002.2,Y
1665554435.8,286046998.9,P
1665554455.7,286046998.9,N
1665554475.5,286046996.9,N
1665554495.3,286046999.1,N
1665554515.2,286046998.9,N
1665554535.0,286046999.1,N
1665554535.9,286046999.1,N
1665554555.8,286046998.6,N
1665554575.6,286046999.0,N
1665554595.4,286046998.1,N
1665554615.3,286047001.2,N
1665554635.1,286047001.2,N
1665554655.8,286046998.4,N
1665554675.7,286047000.7,N
1665554695.5,286046998.3,N
1665554715.4,286046998.2,N
1665554735.2,286047001.0,N
1665554755.0,286047001.1,N
1665554755.9,286047001.1,N
1665554775.8,286047001.0,N
1665554795.6,286046998.3,N
1665554815.4,286047001.1,N
1665554835.3,286047001.2,N
1665554855.1,286046998.2,N
1665554875.9,286046998.6,N
1665554895.7,286046999.0,N
1665554915.5,286047001.2,N
1665554935.4,286047001.1,N
1665554955.2,286047000.7,N
1665554975.0,286047000.9,N
1665554976.0,286047000.9,N
1665554995.8,286047001.0,N
1665555015.6,286047002.4,N
1665555035.5,286047000.6,N
1665555055.3,286047000.9,N
1665555075.1,286046999.8,N
1665555095.9,286046999.8,N
1665555115.7,286047001.1,N
1665555135.6,286046999.3,N
1665555155.4,286046999.2,N
1665555175.2,286046998.8,N
1665555195.1,286047000.6,N
1665555196.0,286047000.6,N
1665555215.8,286047002.2,N
1665555235.6,286047002.7,N
1665555255.5,286046999.9,N
1665555275.3,286047001.6,N
1665555295.2,286047002.0,N
1665555315.9,286047002.1,N
1665555335.7,286047002.7,N
1665555355.6,286047001.5,N
1665555375.4,286047004.3,Y
1665555395.2,286047000.1,P
1665555415.1,286047000.9,N
1665555416.0,286047000.9,N
1665555435.8,286047000.4,N
1665555455.7,286047000.6,N
1665555475.5,286047000.2,N
1665555495.4,286047002.2,Y
1665555515.2,286047002.0,P
1665555535.0,286047001.5,N
1665555535.9,286047001.5,N
1665555555.8,286047002.1,Y
1665555575.6,286047000.1,P
1665555595.5,286046999.9,N
1665555615.3,286047000.8,N
1665555635.1,286047000.6,N
1665555655.9,286047000.3,N
1665555675.6,286047000.7,N
1665555695.4,286047000.8,N
1665555715.3,286046999.6,N
1665555735.1,286046996.8,Y
1665555755.9,286046996.7,P
1665555775.7,286046999.6,N
1665555795.5,286046996.9,N
1665555815.4,286046998.8,N
1665555835.2,286047000.8,N
1665555855.0,286046998.9,N
1665555855.9,286046998.9,N
1665555875.8,286046999.6,N
1665555895.6,286046996.9,N
1665555915.5,286046996.7,N
1665555935.3,286046998.8,N
1665555955.1,286046996.9,N
1665555975.9,286046997.7,N
1665555995.7,286046997.8,N
1665556015.5,286046997.0,N
1665556035.4,286046999.0,N
1665556055.2,286047001.2,N
1665556075.1,286047000.1,N
1665556076.0,286047000.1,N
1665556095.8,286046999.9,N
1665556115.6,286047002.7,N
1665556135.5,286047002.1,N
1665556155.3,286047003.8,N
1665556175.1,286047001.6,N
1665556195.9,286047002.5,N
1665556215.7,286046999.9,N
1665556235.6,286046998.1,N
1665556255.4,286046999.4,N
1665556275.2,286046998.1,N
1665556295.1,286047000.4,N
1665556296.0,286047000.4,N
1665556315.8,286047002.5,N
1665556335.6,286047001.6,N
1665556355.5,286047002.8,N
1665556375.3,286047001.4,N
1665556395.2,286047001.6,N
1665556415.9,286046999.7,N
1665556435.7,286047001.2,N
1665556455.6,286046999.6,N
1665556475.4,286046999.5,N
1665556495.2,286046998.8,N
1665556515.1,286046999.1,N
1665556516.0,286046999.1,N
1665556535.8,286046999.0,N
1665556555.7,286047000.0,N
1665556575.5,286047000.2,N
1665556595.3,286047001.5,N
1665556615.2,286047001.6,N
1665556635.0,286047004.2,N
1665556635.9,286047004.2,N
1665556655.8,286047001.5,N
1665556675.6,286047003.7,N
1665556695.4,286047002.9,N
1665556715.3,286047005.6,Y
1665556735.1,286047004.2,P
1665556755.8,286047001.8,N
1665556775.7,286047002.2,N
1665556795.5,286047002.7,N
1665556815.4,286047002.4,N
1665556835.2,286047002.4,N
1665556855.0,286046999.8,N
1665556855.9,286046999.8,N
1665556875.8,286047000.5,N
1665556895.6,286047002.3,N
1665556915.5,286047001.1,N
1665556935.3,286047000.2,N
1665556955.1,286047002.8,N
1665556975.9,286047000.1,N
1665556995.7,286046998.8,N
1665557015.5,286047000.7,N
1665557035.4,286046998.1,N
1665557055.2,286047000.3,N
1665557075.0,286047000.3,N
1665557076.0,286047000.3,N
1665557095.8,286047000.9,N
1665557115.6,286046998.7,N
1665557135.5,286047001.0,N
1665557155.3,286047001.0,N
1665557175.2,286046999.7,N
1665557195.9,286047000.0,N
1665557215.7,286047000.1,N
1665557235.6,286047002.1,N
1665557255.4,286047002.4,N
1665557275.2,286047001.9,N
1665557295.1,286046999.7,N
1665557296.0,286046999.7,N
1665557315.8,286047002.4,N
1665557335.7,286046999.8,N
1665557355.5,286047000.4,N
1665557375.3,286046998.4,N
1665557395.2,286046998.6,N
1665557415.0,286046998.8,N
1665557415.9,286046998.8,N
1665557435.8,286046996.7,N
1665557455.6,286046996.9,N
1665557475.4,286046996.7,N
1665557495.3,286046999.3,N
1665557515.1,286047000.7,N
1665557535.8,286046998.6,N
1665557555.7,286046998.2,N
1665557575.5,286046998.4,N
1665557595.4,286047001.1,N
1665557615.2,286046998.5,N
1665557635.0,286046999.3,N
1665557635.9,286046999.3,N
1665557655.8,286046997.1,N
1665557675.6,286046997.7,N
1665557695.4,286046996.9,N
1665557715.3,286046998.5,N
1665557735.1,286047000.3,N
1665557755.9,286047000.5,N
1665557775.7,286047000.1,N
1665557795.5,286046999.7,N
1665557815.4,286047002.8,N
1665557835.2,286047002.1,N
1665557855.0,286047002.5,N
1665557855.9,286047002.5,N
1665557875.8,286047001.3,N
1665557895.6,286047004.4,N
1665557915.5,286047001.9,N
1665557935.3,286047002.4,N
1665557955.1,286047002.8,N
1665557975.9,286047004.1,N
1665557995.7,286047001.6,N
